Terminal Aerodrome Forecast
Issued by NWS

Home | Current Version | Previous Version | Text Only | Print | Product List | Glossary On
Versions: 1 2 3 4 5 6 7 8 9 10 11 12 13 14 15 16 17 18 19 20 21 22 23 24 25 26 27 28 29 30 31 32 33 34 35 36 37 38 39 40 41 42 43 44 45 46 47 48 49 50
000
FTUS41 KCTP 130109 AAB
TAFUNV
TAF AMD
KUNV 130109Z 1301/1324 23006KT P6SM -SN SCT019 OVC026
      TEMPO 1304/1305 28020G32KT 1SM -SN BLSN VV007
     FM130500 28010G17KT 1 1/2SM -SN OVC025
     FM130800 29014G22KT 4SM -SN OVC035=

USA.gov is the U.S. government's official web portal to all federal, state and local government web resources and services.